カタログに戻る

STARLINK-1191

運用中通信VLEO
NORAD 45222·PAYLOAD·🇺🇸 United States

打ち上げ Feb 17, 2020 から Cape Canaveral Space Force Station

Loading…

次のパス (今後24時間)

TLE

最新Source: CelesTrak SupGP

元期: Sep 14, 2026, 21:04 UTC

1 45222C 20012AW  26257.87826389  .00040981  00000+0  65800-3 0  2573
2 45222  53.1502 187.0491 0001821 134.2659 242.3684 15.52406926    15

AllMySatでSTARLINK-1191をリアルタイム追跡

Download on the App Store